sat.trackr.live / text

‹ back to catalog

STARLINK-5880

NORAD 57220 · 2023-094C

PAYLOAD ACTIVE UNKNOWN

§ Identity

Operator
Country
US
Launch date
2023-07-07
Launch site
AFWTR
Launch vehicle
Mass (kg)
RCS (m²)

Purposes: comms

External: N2YO · Heavens-Above · Gunter

§ Orbital elements

Epoch: 2026-09-20T04:52:20.784576Z

Period
94.27 min
Inclination
43.0043°
Eccentricity
0.0001359
Mean motion
15.27574137 rev/d
Perigee alt
482.1 km
Apogee alt
484.0 km
Semi-major
6,861.2 km
B*
1.1271e-5
RAAN
15.6372°
Arg perigee
266.4668°
Mean anomaly
93.6029°
Rev number
17,682

§ Raw data

STARLINK-58801 57220U 23094C   26263.20301834  .00000048  00000+0  11271-4 0  99912 57220  43.0043  15.6372 0001359 266.4668  93.6029 15.27574137176827

JSON: /api/v1/satellites/57220 · /tle

For live sub-satellite position, see the globe view (requires WebGL).

§ Visibility from observer

Set your observer location to see the next 7 days of passes ≥ 10°. The values pass through the URL so the page stays shareable.

No JS? Fill the form by hand. The geolocation button needs JavaScript.